Temp
28 27 26 26 26 26 25 25 25 25 24 23 22 21 21 20 20 19 19 20 20 21 20 19 19 19 21 22 21 21 22 22 22 22 21 21 20 18 19 17 14 11 10 14 18 18 17 19 19 18 20 19 20 22 23 25 24 24 23 23 22 23 26
28 27 26 26 25 25 25 25 25 25 24 22 22 22 21 20 19 19 18 19 19 19 19 19 18 18 19 21 21 20 20 21 20 20 19 19 19 18 17 19 15 13 10 9 14 15 17 17 19 16 20 19 20 20 22 23 23 24 24 23 22 22 22
27 27 26 26 25 25 25 25 24 24 23 23 22 21 21 21 20 19 18 17 17 18 18 18 17 17 17 18 17 19 18 18 17 19 18 18 19 18 18 18 17 12 8 8 10 14 13 15 17 16 17 20 21 22 23 22 23 23 24 24 23 22 23
27 26 26 26 26 25 25 25 24 23 23 23 22 22 21 21 21 19 18 17 17 17 17 16 16 17 17 17 16 16 16 16 17 18 19 19 19 18 17 16 14 12 10 9 9 12 12 15 15 17 20 21 22 22 22 23 23 24 22 22 23 22 22
27 26 25 26 26 25 25 24 24 23 23 23 23 22 22 21 20 19 18 18 17 19 17 16 16 17 16 14 13 14 14 15 16 18 18 17 18 17 15 13 13 12 12 11 10 11 14 16 17 18 19 21 20 21 21 22 21 20 20 21 22 22 23
26 26 26 26 26 26 25 24 24 23 23 22 22 22 21 21 20 20 19 18 18 18 18 17 16 16 15 13 13 14 14 15 16 18 18 17 16 14 12 11 12 14 14 13 12 12 12 15 15 17 19 21 21 18 17 18 19 20 20 19 19 21 22
27 27 27 26 25 25 25 24 24 23 23 22 22 21 20 20 20 19 19 19 18 18 18 17 15 14 13 13 13 13 14 16 17 18 16 15 11 11 12 12 14 14 13 13 12 13 14 14 17 18 16 20 20 19 18 16 16 16 19 19 18 17 20
26 27 26 25 25 25 25 24 23 23 23 22 21 20 20 20 19 19 19 18 18 17 16 15 14 13 13 13 13 14 15 17 18 17 13 11 12 13 13 13 14 14 12 12 12 12 13 15 15 17 19 19 17 15 16 18 16 13 14 15 16 17 16
27 26 25 25 24 24 24 23 22 22 22 21 20 20 19 19 20 19 19 18 18 17 16 15 15 13 12 15 20 22 23 22 22 17 14 15 15 15 14 13 13 12 12 12 12 12 14 15 15 15 14 13 12 12 12 16 16 14 14 14 13 15 18
27 26 24 23 23 23 23 22 23 24 26 25 21 19 19 19 20 19 19 18 17 17 17 16 15 15 21 22 23 24 25 25 26 26 23 18 14 14 14 13 13 12 13 12 11 12 13 12 12 13 13 12 12 14 15 14 13 11 12 13 11 13 15
25 25 24 24 23 22 22 22 22 26 27 27 27 22 19 19 19 19 19 18 17 17 17 16 16 14 19 22 23 23 25 25 25 25 24 25 25 23 19 15 14 14 14 13 12 13 13 12 10 11 12 11 11 13 12 12 12 11 11 9 7 4 11
25 24 24 24 23 22 22 22 24 26 27 28 28 27 21 19 19 19 18 18 18 18 17 17 16 17 18 19 19 17 16 19 22 23 24 24 24 23 23 23 19 15 14 14 13 12 11 10 8 8 9 10 10 11 12 13 13 12 10 9 7 8 7
25 24 23 23 22 22 22 22 25 27 28 28 29 29 26 20 19 19 18 18 18 17 17 17 17 17 18 16 21 22 19 10 6 16 21 22 22 22 22 21 21 22 18 17 13 10 9 9 8 7 9 11 12 14 11 12 11 11 11 11 9 9 10
24 24 23 22 22 22 22 22 24 27 28 28 29 29 29 23 19 19 19 19 18 18 18 18 18 17 17 17 16 15 13 8 6 5 4 4 6 7 13 18 20 20 20 19 13 10 8 10 11 9 11 13 15 13 11 11 10 11 10 9 9 11 12
24 23 23 22 22 22 22 22 25 27 28 28 29 29 29 25 22 20 19 19 19 18 18 18 18 17 17 16 15 12 12 7 5 4 4 4 6 9 12 15 16 16 14 14 13 12 12 12 14 14 14 15 16 15 14 14 11 10 9 9 10 9 10
24 23 22 23 22 21 21 22 26 27 28 28 29 29 27 25 23 20 19 19 19 20 20 19 18 17 16 14 13 16 21 21 16 11 9 8 10 14 16 17 19 20 20 18 17 16 16 16 16 19 16 16 16 15 14 13 12 10 7 5 3 2 6
24 24 23 22 22 21 21 21 25 27 28 28 29 28 25 25 23 21 20 20 20 20 20 19 18 16 14 13 12 16 21 21 21 17 15 15 14 15 15 13 13 17 19 19 20 20 20 19 18 18 18 18 18 15 14 11 6 3 3 -0 -3 -1 2
23 23 23 23 22 21 21 21 24 27 28 28 29 28 25 24 23 21 20 19 20 19 18 19 23 21 16 16 13 19 21 22 20 17 15 14 14 12 10 10 9 8 11 15 16 15 14 13 13 14 14 13 14 15 14 7 1 2 1 -2 -2 -4 -1
23 22 23 23 23 24 22 21 23 26 27 28 29 28 25 24 22 20 19 17 16 16 16 16 19 23 22 19 18 22 21 22 20 16 16 14 10 8 6 9 9 6 6 5 -2 -4 -2 -0 4 2 1 4 12 13 12 8 5 4 0 -2 -3 -2 -2
22 21 21 23 22 22 23 22 22 24 27 28 29 29 26 24 21 19 18 16 14 13 13 14 13 17 21 22 21 21 21 20 21 19 15 11 8 6 6 11 6 7 6 2 -4 -5 -4 -3 -3 -2 -1 -0 2 5 6 7 7 5 2 -1 -2 -2 -2
21 21 21 21 22 22 22 22 22 22 27 28 28 29 28 23 21 20 18 15 13 13 12 11 11 7 16 20 20 19 20 21 21 21 15 11 9 10 13 12 2 0 5 -5 -5 -5 -4 -4 -4 -4 -3 -2 1 3 5 6 6 6 4 2 -1 -3 -5
21 20 20 21 21 21 21 22 23 22 25 27 28 29 30 24 21 21 18 15 13 12 11 11 9 5 12 19 19 19 20 21 20 19 14 12 17 17 15 8 -1 -6 -8 -7 -7 -6 -6 -6 -6 -5 -4 -2 0 3 4 4 5 5 5 4 2 -0 -3
20 19 19 19 20 20 21 21 22 24 22 26 28 29 29 29 22 25 19 16 13 12 12 8 7 7 17 18 19 20 20 19 17 15 13 17 16 13 12 6 -8 -5 -8 -8 -7 -7 -7 -7 -7 -6 -5 -3 -1 1 2 3 4 5 5 5 3 3 2
19 19 18 18 18 19 20 20 21 23 25 23 27 28 29 29 26 25 19 17 15 12 11 8 3 6 17 18 19 19 17 15 15 13 15 14 12 9 6 -4 -7 -10 -9 -8 -8 -8 -8 -8 -7 -6 -6 -3 -1 1 1 3 5 5 6 6 4 3 3
19 18 18 18 17 18 18 19 20 20 23 25 25 27 28 28 29 26 24 17 14 12 10 13 16 18 18 18 17 16 13 10 12 13 12 11 9 5 -9 -8 -11 -9 -11 -10 -9 -8 -8 -8 -6 -6 -5 -3 -1 1 3 4 5 6 6 7 7 5 3
19 18 18 17 17 17 18 18 18 18 20 23 24 25 27 28 28 27 25 21 16 17 19 19 19 19 17 15 13 5 -1 -0 3 10 9 8 5 -12 -9 -9 -7 -8 -10 -10 -8 -8 -8 -7 -7 -6 -5 -3 -2 -2 0 2 3 3 4 6 6 6 5
18 18 17 17 17 17 17 17 17 17 18 20 21 21 23 25 25 27 27 20 18 19 16 17 14 11 13 12 13 10 9 7 4 -3 -5 -9 -11 -10 -10 -6 -4 -5 -9 -9 -8 -8 -8 -7 -6 -5 -5 -5 -5 -3 -0 2 3 2 3 4 5 4 4
18 18 17 17 17 17 16 16 16 16 16 17 19 19 20 20 19 21 18 13 11 8 10 9 11 7 -0 -2 -4 -6 -10 -11 -10 -9 -8 -11 -12 -10 -7 1 3 1 -11 -13 -12 -10 -9 -8 -8 -8 -7 -6 -6 -5 -2 1 2 2 2 3 4 2 0
19 19 19 19 18 16 15 15 15 16 20 18 21 19 18 18 18 17 14 13 11 3 1 1 -1 -4 -4 -5 -6 -8 -11 -13 -12 -11 -12 -12 -10 -9 -11 -11 -14 -10 -10 -10 -10 -9 -9 -9 -9 -9 -8 -8 -7 -6 -4 -1 1 2 2 2 3 1 1
21 21 20 19 20 19 17 16 18 22 23 23 23 24 23 22 22 19 15 17 17 9 1 -4 -3 -7 -7 -8 -9 -9 -10 -11 -14 -14 -11 -12 -2 -9 -10 -9 -11 -12 -10 -9 -9 -9 -10 -9 -10 -10 -9 -9 -8 -7 -5 -2 1 -1 2 0 0 -0 -0
27 26 25 21 18 20 24 23 23 24 24 24 24 24 24 24 23 22 21 20 13 6 1 -3 -3 -8 -9 -9 -10 -10 -12 -12 -13 -11 -13 -13 -14 -13 -10 -8 -12 -9 -9 -9 -9 -8 -10 -10 -11 -11 -10 -10 -9 -8 -7 -6 -3 -2 -0 -1 -1 -1 -1
27 28 27 26 23 20 19 23 24 24 24 24 24 25 25 24 24 23 23 21 17 4 -1 -1 -3 -7 -8 -9 -9 -10 -11 -14 -15 -14 -14 -15 -12 -11 -10 -11 -9 -7 -11 -9 -8 -9 -9 -10 -10 -10 -10 -9 -9 -8 -9 -7 -6 -5 -4 -2 -1 -1 -0
28 28 28 28 26 25 22 22 24 25 25 25 25 25 25 25 25 24 24 21 11 3 -1 -5 -3 -4 -7 -7 -7 -10 -12 -14 -15 -16 -14 -16 -15 -13 -11 -11 -11 -9 -10 -8 -5 -7 -11 -10 -10 -10 -10 -9 -9 -9 -10 -8 -8 -7 -5 -4 -3 -2 -1
25 25 27 28 28 26 25 24 25 25 25 25 25 25 25 25 23 24 25 17 7 4 0 -3 -4 -5 -6 -7 -9 -10 -12 -14 -15 -15 -15 -14 -15 -15 -16 -14 -13 -12 -10 -12 -10 -11 -10 -10 -11 -10 -11 -11 -11 -10 -11 -10 -9 -8 -7 -7 -5 -5 -3
17 21 24 25 26 27 26 25 25 25 26 26 26 26 26 25 20 18 18 11 4 3 1 -2 -3 -4 -5 -6 -6 -9 -11 -12 -18 -17 -14 -13 -13 -16 -15 -12 -11 -10 -13 -12 -12 -10 -9 -8 -11 -12 -11 -12 -12 -11 -11 -11 -10 -9 -7 -8 -7 -5 -5
15 16 20 24 26 26 26 26 26 25 26 26 27 26 26 18 16 15 11 5 3 1 -1 -1 -2 -3 -5 -6 -7 -9 -12 -14 -16 -17 -15 -15 -16 -13 -12 -10 -9 -10 -12 -14 -14 -12 -9 -9 -11 -11 -11 -13 -12 -12 -12 -12 -11 -11 -8 -7 -7 -6 -6
MSLP
1008.31 1008.75 1009.27 1009.83 1010.31 1010.63 1011.03 1011.35 1011.71 1012.07 1012.47 1012.83 1013.07 1013.23 1013.39 1013.67 1013.87 1013.91 1013.95 1014.19 1014.43 1014.51 1014.59 1014.63 1014.67 1014.71 1014.71 1014.79 1014.91 1014.91 1014.99 1014.99 1014.91 1014.87 1014.79 1014.67 1014.59 1014.51 1014.43 1014.51 1014.39 1013.91 1012.63 1011.43 1011.95 1011.35 1010.83 1010.43 1010.59 1009.71 1009.67 1008.91 1008.47 1007.99 1007.59 1007.27 1006.71 1006.23 1005.63 1005.23 1004.87 1004.43 1004.19
1007.95 1008.43 1008.91 1009.43 1009.87 1010.27 1010.63 1010.95 1011.27 1011.63 1012.03 1012.43 1012.71 1012.87 1012.99 1013.27 1013.51 1013.51 1013.59 1013.79 1013.99 1014.15 1014.23 1014.27 1014.31 1014.35 1014.43 1014.51 1014.63 1014.67 1014.67 1014.71 1014.75 1014.75 1014.63 1014.47 1014.39 1014.23 1014.19 1014.07 1014.03 1013.51 1013.39 1011.95 1011.43 1011.35 1010.75 1010.55 1010.39 1009.63 1009.03 1008.91 1008.03 1007.59 1007.15 1006.59 1006.19 1005.67 1005.27 1004.75 1004.35 1003.99 1003.59
1007.55 1007.99 1008.47 1008.99 1009.43 1009.83 1010.19 1010.47 1010.83 1011.19 1011.55 1011.95 1012.27 1012.47 1012.59 1012.79 1013.03 1013.11 1013.19 1013.35 1013.51 1013.67 1013.83 1013.95 1013.95 1013.99 1014.15 1014.31 1014.39 1014.39 1014.43 1014.51 1014.55 1014.43 1014.27 1014.03 1013.95 1013.79 1013.67 1013.63 1013.67 1013.67 1013.35 1012.79 1011.63 1011.59 1010.95 1010.39 1009.95 1009.75 1008.55 1008.35 1008.03 1007.31 1006.79 1006.19 1005.71 1005.27 1004.79 1004.39 1004.03 1003.59 1003.11
1007.19 1007.67 1008.07 1008.43 1008.83 1009.23 1009.55 1009.99 1010.39 1010.75 1011.07 1011.43 1011.83 1012.11 1012.19 1012.35 1012.55 1012.67 1012.71 1012.79 1012.99 1013.23 1013.43 1013.51 1013.63 1013.63 1013.75 1013.95 1014.11 1014.15 1014.27 1014.31 1014.27 1014.11 1013.83 1013.55 1013.43 1013.47 1013.35 1013.31 1013.51 1013.51 1013.39 1012.87 1012.31 1010.99 1011.27 1010.19 1009.87 1008.87 1008.51 1007.95 1007.43 1007.07 1006.31 1005.99 1005.31 1005.11 1004.67 1004.15 1003.79 1003.35 1002.87
1007.07 1007.43 1007.75 1008.03 1008.31 1008.75 1009.15 1009.47 1009.87 1010.35 1010.67 1011.03 1011.39 1011.67 1011.83 1011.99 1012.15 1012.23 1012.27 1012.31 1012.47 1012.67 1012.91 1013.07 1013.11 1013.19 1013.39 1013.63 1013.87 1013.95 1014.03 1013.99 1013.95 1013.71 1013.55 1013.43 1013.23 1013.11 1013.15 1013.35 1013.31 1013.15 1013.03 1012.75 1012.19 1011.07 1010.63 1010.19 1009.43 1008.79 1008.11 1007.63 1007.03 1006.27 1006.15 1005.75 1005.39 1004.95 1004.47 1003.95 1003.51 1003.07 1002.55
1006.87 1007.07 1007.31 1007.63 1007.95 1008.35 1008.75 1009.15 1009.55 1009.87 1010.11 1010.47 1010.87 1011.27 1011.55 1011.71 1011.87 1011.91 1011.95 1011.95 1012.03 1012.23 1012.39 1012.59 1012.71 1012.91 1013.07 1013.31 1013.55 1013.63 1013.63 1013.67 1013.59 1013.39 1013.11 1012.91 1012.91 1013.11 1013.19 1013.11 1012.91 1012.59 1012.35 1012.11 1011.59 1011.19 1010.19 1009.79 1009.19 1008.27 1007.71 1007.23 1006.95 1006.59 1005.91 1005.43 1005.11 1004.67 1004.35 1003.83 1003.19 1002.83 1002.47
1006.35 1006.59 1006.87 1007.19 1007.63 1007.91 1008.31 1008.75 1009.11 1009.51 1009.79 1009.99 1010.27 1010.71 1011.07 1011.35 1011.47 1011.59 1011.67 1011.63 1011.71 1011.91 1012.15 1012.31 1012.47 1012.63 1012.79 1012.91 1013.15 1013.31 1013.35 1013.27 1013.11 1012.83 1012.71 1012.91 1013.03 1012.99 1012.91 1012.63 1012.15 1011.95 1011.87 1011.71 1011.35 1010.67 1010.11 1009.27 1008.55 1008.15 1007.23 1006.83 1006.99 1006.71 1006.35 1005.51 1004.59 1004.23 1003.99 1003.79 1003.51 1002.75 1002.23
1005.79 1006.07 1006.47 1006.87 1007.23 1007.47 1007.91 1008.31 1008.59 1008.99 1009.39 1009.67 1009.79 1009.99 1010.39 1010.75 1011.07 1011.23 1011.31 1011.39 1011.51 1011.71 1011.91 1012.11 1012.27 1012.39 1012.51 1012.59 1012.71 1012.87 1012.87 1012.83 1012.59 1012.51 1012.67 1012.71 1012.67 1012.47 1012.31 1012.03 1011.75 1011.67 1011.63 1011.43 1010.95 1010.39 1009.67 1009.03 1008.23 1007.43 1007.03 1006.87 1006.83 1006.39 1005.87 1005.63 1005.11 1004.39 1003.83 1003.67 1003.63 1003.39 1002.55
1005.43 1005.87 1006.27 1006.67 1006.91 1007.19 1007.43 1007.79 1008.07 1008.39 1008.75 1009.19 1009.59 1009.91 1009.99 1010.11 1010.43 1010.71 1010.87 1011.03 1011.19 1011.43 1011.67 1011.87 1012.03 1012.15 1012.23 1012.19 1012.11 1012.03 1011.95 1011.87 1011.83 1011.91 1011.99 1011.79 1011.87 1011.83 1011.83 1011.67 1011.51 1011.47 1011.31 1010.91 1010.55 1009.87 1009.27 1008.55 1007.91 1007.39 1007.15 1007.03 1006.95 1006.63 1005.95 1005.31 1005.23 1004.51 1004.23 1003.79 1003.27 1002.75 1002.71
1005.11 1005.47 1005.83 1006.19 1006.47 1006.79 1006.99 1007.23 1007.47 1007.71 1008.07 1008.51 1009.07 1009.47 1009.71 1009.87 1010.03 1010.19 1010.35 1010.59 1010.83 1010.99 1011.23 1011.47 1011.67 1011.71 1011.63 1011.51 1011.39 1011.31 1011.23 1011.07 1010.83 1010.71 1010.79 1011.03 1011.35 1011.39 1011.35 1011.27 1011.11 1010.95 1010.71 1010.47 1010.07 1009.43 1008.83 1008.23 1007.71 1007.51 1007.47 1007.15 1006.71 1006.51 1005.95 1005.51 1005.15 1004.71 1003.87 1003.71 1003.19 1002.51 1002.35
1004.75 1005.11 1005.47 1005.71 1005.99 1006.27 1006.51 1006.79 1007.03 1007.23 1007.55 1007.83 1008.19 1008.79 1009.19 1009.35 1009.47 1009.67 1009.91 1010.11 1010.27 1010.47 1010.71 1010.95 1011.19 1011.31 1011.23 1011.11 1010.95 1010.83 1010.71 1010.63 1010.55 1010.59 1010.55 1010.43 1010.31 1010.35 1010.47 1010.51 1010.43 1010.27 1010.15 1009.95 1009.47 1008.75 1008.31 1008.07 1007.79 1007.59 1007.51 1007.27 1006.79 1006.43 1006.07 1005.39 1004.91 1004.43 1003.91 1003.67 1003.35 1002.39 1001.27
1004.31 1004.71 1005.03 1005.27 1005.51 1005.79 1006.03 1006.31 1006.59 1006.83 1007.07 1007.31 1007.51 1007.95 1008.59 1008.91 1008.99 1009.15 1009.35 1009.63 1009.87 1010.07 1010.31 1010.51 1010.75 1010.83 1010.87 1010.79 1010.71 1010.83 1010.87 1010.75 1010.63 1010.55 1010.35 1010.23 1010.15 1010.11 1010.03 1009.87 1009.87 1009.79 1009.63 1009.43 1008.95 1008.51 1008.39 1008.23 1007.95 1007.79 1007.59 1007.03 1006.79 1006.11 1005.47 1004.99 1004.59 1004.15 1003.67 1003.23 1002.87 1002.39 1001.75
1003.91 1004.27 1004.59 1004.87 1005.11 1005.35 1005.59 1005.87 1006.11 1006.31 1006.55 1006.83 1007.03 1007.27 1007.67 1008.27 1008.47 1008.63 1008.83 1009.15 1009.43 1009.71 1009.95 1010.11 1010.27 1010.35 1010.35 1010.39 1010.31 1010.23 1010.31 1010.55 1010.71 1010.63 1010.35 1010.15 1010.07 1009.99 1009.87 1009.83 1009.67 1009.51 1009.23 1008.83 1008.59 1008.67 1008.31 1008.35 1008.03 1007.79 1007.03 1006.67 1006.15 1005.63 1004.99 1004.47 1004.03 1003.55 1003.03 1002.63 1002.27 1001.67 1001.23
1003.47 1003.79 1004.15 1004.35 1004.59 1004.79 1005.11 1005.47 1005.71 1005.87 1006.11 1006.39 1006.59 1006.71 1006.91 1007.51 1008.11 1008.27 1008.43 1008.71 1008.99 1009.27 1009.51 1009.67 1009.83 1009.91 1009.95 1009.99 1010.07 1010.19 1010.31 1010.47 1010.55 1010.51 1010.55 1010.59 1010.59 1010.47 1010.07 1009.71 1009.43 1009.11 1008.83 1008.79 1008.87 1008.79 1008.47 1007.71 1007.79 1006.95 1006.23 1005.91 1005.83 1005.35 1004.67 1004.03 1003.19 1003.11 1002.87 1002.67 1002.23 1001.75 1001.27
1002.99 1003.23 1003.59 1003.91 1004.15 1004.43 1004.71 1004.95 1005.15 1005.39 1005.63 1005.79 1006.03 1006.19 1006.43 1006.79 1007.43 1007.83 1008.03 1008.23 1008.51 1008.79 1009.03 1009.19 1009.39 1009.55 1009.55 1009.67 1009.83 1009.95 1010.03 1010.15 1010.15 1010.19 1010.31 1010.31 1010.23 1010.07 1009.63 1009.19 1008.95 1008.83 1008.87 1008.79 1008.51 1008.19 1007.63 1007.03 1006.67 1006.31 1005.83 1005.47 1005.19 1004.87 1004.19 1003.79 1003.55 1003.35 1003.03 1002.55 1002.11 1001.75 1001.47
1002.51 1002.83 1003.11 1003.35 1003.71 1004.03 1004.31 1004.51 1004.67 1004.91 1005.19 1005.43 1005.59 1005.79 1006.03 1006.27 1006.79 1007.31 1007.59 1007.83 1008.07 1008.31 1008.55 1008.79 1009.03 1009.19 1009.27 1009.39 1009.47 1009.59 1009.47 1009.35 1009.39 1009.59 1009.67 1009.79 1009.59 1009.11 1008.71 1008.39 1008.31 1008.39 1008.31 1008.07 1007.67 1007.27 1006.87 1006.43 1006.15 1005.83 1005.47 1005.15 1004.79 1004.35 1004.07 1003.79 1003.39 1003.27 1003.19 1002.95 1002.43 1001.83 1001.07
1001.87 1002.19 1002.55 1002.95 1003.27 1003.59 1003.83 1004.03 1004.23 1004.43 1004.67 1004.99 1005.19 1005.43 1005.63 1005.91 1006.23 1006.75 1007.15 1007.31 1007.55 1007.87 1008.11 1008.39 1008.63 1008.83 1008.99 1009.15 1009.27 1009.31 1009.19 1009.11 1008.95 1008.87 1008.95 1008.87 1008.83 1008.55 1008.23 1008.11 1008.27 1008.27 1007.99 1007.63 1007.39 1007.03 1006.75 1006.43 1006.11 1005.79 1005.43 1005.11 1004.87 1004.55 1004.07 1003.63 1003.43 1003.43 1003.63 1003.67 1003.15 1002.27 1001.79
1001.35 1001.75 1002.07 1002.43 1002.75 1002.99 1003.31 1003.51 1003.71 1003.99 1004.23 1004.47 1004.71 1004.95 1005.23 1005.51 1005.87 1006.19 1006.59 1006.91 1007.19 1007.55 1007.83 1008.03 1008.19 1008.43 1008.67 1008.83 1009.03 1009.03 1008.91 1008.71 1008.55 1008.47 1008.63 1008.75 1008.43 1008.31 1008.39 1008.15 1008.07 1008.11 1008.03 1007.79 1007.47 1007.31 1007.11 1006.71 1006.27 1005.91 1005.63 1005.43 1005.03 1004.51 1004.11 1003.95 1003.71 1003.47 1003.75 1003.63 1003.43 1002.67 1001.95
1000.95 1001.35 1001.67 1001.91 1002.15 1002.43 1002.83 1003.11 1003.39 1003.63 1003.83 1003.99 1004.19 1004.43 1004.79 1005.15 1005.55 1005.95 1006.35 1006.79 1007.19 1007.47 1007.67 1007.91 1007.99 1008.03 1008.15 1008.39 1008.55 1008.55 1008.55 1008.43 1008.31 1008.43 1008.31 1008.35 1008.59 1008.59 1008.47 1008.03 1008.03 1008.23 1007.91 1007.55 1007.63 1007.63 1007.47 1006.91 1006.55 1006.31 1006.11 1005.67 1004.99 1004.43 1004.15 1004.07 1003.79 1003.43 1003.55 1003.27 1003.11 1002.83 1002.23
1000.59 1000.95 1001.23 1001.51 1001.83 1002.15 1002.39 1002.71 1003.03 1003.31 1003.43 1003.55 1003.67 1003.83 1004.23 1004.67 1005.23 1005.63 1006.07 1006.59 1006.99 1007.39 1007.63 1007.79 1007.99 1008.03 1008.11 1008.15 1008.31 1008.43 1008.43 1008.35 1008.11 1007.91 1008.23 1008.63 1008.67 1008.55 1008.19 1007.91 1008.35 1008.19 1007.91 1007.79 1007.99 1007.63 1007.31 1006.95 1006.59 1006.31 1005.95 1005.51 1005.03 1004.51 1004.15 1003.75 1003.51 1003.27 1003.11 1003.07 1002.79 1002.67 1002.47
1000.31 1000.63 1000.87 1001.15 1001.43 1001.75 1001.99 1002.23 1002.59 1002.91 1003.07 1003.19 1003.27 1003.39 1003.59 1004.15 1004.67 1005.15 1005.71 1006.31 1006.79 1007.11 1007.35 1007.67 1007.91 1008.15 1008.23 1008.19 1008.31 1008.43 1008.27 1008.03 1007.75 1007.63 1008.11 1008.39 1008.55 1008.23 1007.67 1007.79 1008.39 1008.31 1008.15 1008.27 1007.95 1007.51 1007.11 1006.75 1006.47 1006.19 1005.79 1005.35 1004.79 1004.27 1003.79 1003.43 1003.15 1002.87 1002.67 1002.55 1002.39 1002.19 1002.15
1000.15 1000.43 1000.71 1000.95 1001.15 1001.35 1001.59 1001.87 1002.19 1002.55 1002.75 1002.83 1002.91 1002.99 1003.03 1003.59 1004.23 1004.67 1005.35 1006.07 1006.51 1006.91 1007.19 1007.35 1007.75 1007.99 1008.19 1008.11 1008.27 1008.23 1007.99 1007.67 1007.59 1007.79 1008.15 1008.27 1007.79 1007.59 1007.71 1008.07 1008.51 1008.67 1008.55 1008.39 1008.03 1007.55 1007.19 1006.87 1006.55 1006.15 1005.67 1005.15 1004.63 1004.03 1003.55 1003.15 1002.71 1002.31 1002.07 1001.91 1001.71 1001.63 1001.51
999.99 1000.31 1000.59 1000.79 1000.95 1001.07 1001.31 1001.59 1001.91 1002.15 1002.51 1002.59 1002.59 1002.63 1002.75 1002.99 1003.83 1004.23 1004.91 1005.39 1006.03 1006.47 1006.75 1007.23 1007.55 1007.87 1007.95 1007.95 1008.03 1007.87 1007.63 1007.67 1007.87 1008.11 1008.15 1007.87 1007.79 1007.99 1008.11 1008.47 1008.83 1008.75 1008.63 1008.35 1007.95 1007.63 1007.35 1007.03 1006.71 1006.19 1005.59 1005.03 1004.39 1003.79 1003.31 1002.79 1002.27 1001.79 1001.43 1001.15 1000.95 1000.75 1000.59
999.79 1000.11 1000.31 1000.55 1000.67 1000.87 1001.11 1001.35 1001.67 1001.83 1002.03 1002.35 1002.43 1002.39 1002.51 1002.63 1003.23 1003.75 1004.47 1004.99 1005.43 1006.03 1006.55 1007.03 1007.47 1007.79 1007.75 1007.75 1007.71 1007.63 1007.75 1007.95 1008.07 1008.11 1008.07 1008.11 1008.23 1008.43 1008.67 1008.87 1008.87 1008.75 1008.59 1008.31 1007.99 1007.75 1007.55 1007.19 1006.71 1006.27 1005.67 1005.03 1004.43 1003.79 1003.15 1002.51 1001.87 1001.39 1000.91 1000.47 1000.15 999.95 999.83
999.43 999.71 999.91 1000.15 1000.35 1000.59 1000.91 1001.15 1001.39 1001.67 1001.75 1001.99 1002.23 1002.27 1002.31 1002.47 1002.67 1003.31 1003.95 1004.75 1005.27 1005.75 1006.31 1006.71 1006.99 1007.23 1007.35 1007.55 1007.67 1007.87 1008.27 1008.43 1008.35 1008.19 1008.35 1008.43 1008.63 1008.95 1009.07 1008.95 1008.83 1008.63 1008.47 1008.15 1008.03 1007.99 1007.75 1007.27 1006.75 1006.35 1005.79 1005.19 1004.51 1003.79 1002.99 1002.23 1001.55 1000.99 1000.51 999.95 999.43 999.15 999.11
999.07 999.35 999.59 999.83 1000.07 1000.39 1000.63 1000.91 1001.19 1001.47 1001.75 1001.83 1002.07 1002.23 1002.23 1002.31 1002.47 1002.95 1003.59 1004.19 1004.91 1005.39 1005.87 1006.23 1006.55 1006.87 1007.27 1007.63 1008.07 1008.51 1008.71 1008.79 1008.63 1008.55 1008.71 1008.83 1008.99 1009.23 1009.11 1009.03 1008.75 1008.43 1008.35 1008.23 1008.27 1008.11 1007.75 1007.27 1006.79 1006.19 1005.63 1005.07 1004.47 1003.83 1003.03 1002.39 1001.63 1000.99 1000.35 999.79 999.27 998.83 998.55
998.75 998.99 999.27 999.51 999.79 1000.07 1000.35 1000.71 1001.03 1001.39 1001.71 1001.83 1001.99 1002.19 1002.27 1002.27 1002.39 1002.63 1003.03 1004.03 1004.71 1005.19 1005.79 1006.23 1006.79 1007.19 1007.51 1007.79 1008.03 1008.35 1008.63 1008.87 1009.07 1009.23 1009.35 1009.43 1009.39 1009.27 1009.19 1008.95 1008.59 1008.43 1008.43 1008.39 1008.35 1008.19 1007.83 1007.39 1006.87 1006.31 1005.59 1004.95 1004.43 1003.83 1003.19 1002.55 1001.91 1001.31 1000.75 1000.03 999.51 999.15 998.79
998.31 998.55 998.83 999.15 999.43 999.75 1000.11 1000.51 1000.83 1001.19 1001.55 1001.79 1001.87 1002.07 1002.23 1002.35 1002.51 1002.67 1003.27 1004.39 1005.15 1005.79 1006.23 1006.59 1006.95 1007.55 1008.07 1008.39 1008.75 1009.07 1009.31 1009.39 1009.55 1009.59 1009.55 1009.43 1009.43 1009.23 1009.19 1008.83 1008.55 1008.39 1008.51 1008.47 1008.59 1008.39 1008.03 1007.51 1006.99 1006.31 1005.71 1005.15 1004.63 1004.11 1003.47 1002.79 1002.11 1001.63 1001.11 1000.39 999.87 999.43 999.19
997.63 997.87 998.19 998.51 998.83 999.35 999.83 1000.15 1000.51 1000.55 1000.59 1000.95 1001.23 1001.59 1001.99 1002.27 1002.51 1002.87 1003.63 1004.31 1005.11 1006.15 1006.79 1007.03 1007.43 1007.71 1008.15 1008.43 1008.59 1008.95 1009.07 1009.27 1009.19 1009.31 1009.63 1009.59 1009.23 1009.15 1008.99 1008.87 1008.75 1008.59 1008.55 1008.59 1008.47 1008.27 1007.99 1007.59 1007.07 1006.51 1005.95 1005.43 1004.83 1004.27 1003.79 1003.19 1002.51 1001.91 1001.43 1000.79 1000.23 999.95 999.67
997.03 997.27 997.67 998.03 998.23 998.51 998.91 999.31 999.35 999.75 1000.27 1000.67 1000.99 1001.27 1001.59 1001.91 1002.23 1002.71 1003.51 1004.07 1004.59 1005.35 1006.35 1006.99 1007.19 1007.67 1007.95 1008.43 1008.63 1008.71 1008.83 1008.91 1009.15 1009.15 1009.23 1009.39 1009.15 1009.11 1008.91 1008.87 1008.91 1008.79 1008.67 1008.55 1008.47 1008.39 1008.15 1007.71 1007.23 1006.63 1006.11 1005.63 1005.15 1004.59 1004.07 1003.55 1002.99 1002.47 1001.75 1001.27 1000.63 1000.23 999.95
996.55 996.83 997.11 997.47 997.99 998.23 998.39 998.75 999.11 999.51 999.83 1000.23 1000.59 1000.87 1001.19 1001.63 1002.03 1002.51 1003.03 1003.63 1004.59 1005.47 1005.91 1006.67 1007.11 1007.67 1008.15 1008.35 1008.67 1008.63 1008.87 1009.15 1009.15 1009.19 1009.35 1009.23 1009.23 1009.07 1009.03 1008.99 1008.95 1008.79 1008.75 1008.59 1008.47 1008.39 1008.23 1007.91 1007.47 1006.87 1006.39 1005.91 1005.51 1005.07 1004.59 1003.99 1003.43 1002.91 1002.23 1001.79 1001.27 1000.75 1000.31
996.27 996.39 996.59 996.99 997.47 998.03 998.39 998.51 998.75 999.11 999.39 999.75 1000.11 1000.47 1000.83 1001.27 1001.71 1002.15 1002.63 1003.23 1003.99 1005.11 1006.07 1006.43 1006.87 1007.59 1007.99 1008.47 1008.55 1008.91 1008.99 1009.07 1009.11 1009.35 1009.35 1009.23 1008.91 1008.83 1008.95 1009.03 1008.95 1008.87 1008.83 1008.63 1008.51 1008.43 1008.27 1007.95 1007.51 1007.07 1006.59 1006.23 1005.79 1005.39 1004.95 1004.43 1003.83 1003.31 1002.79 1002.23 1001.67 1001.27 1000.91
995.91 995.99 996.19 996.43 996.87 997.43 997.87 998.19 998.43 998.71 999.03 999.31 999.67 1000.07 1000.47 1000.87 1001.35 1001.83 1002.27 1003.03 1004.03 1004.83 1005.99 1006.63 1006.87 1007.35 1008.03 1008.35 1008.31 1008.75 1008.71 1008.99 1009.11 1009.23 1009.31 1009.31 1009.07 1008.83 1008.95 1009.11 1009.15 1009.15 1008.79 1008.75 1008.59 1008.55 1008.43 1008.11 1007.75 1007.31 1006.83 1006.43 1006.07 1005.59 1005.15 1004.79 1004.39 1003.91 1003.47 1002.87 1002.15 1001.59 1001.23
996.11 996.03 995.91 996.03 996.27 996.83 997.43 997.83 998.11 998.35 998.67 998.95 999.31 999.67 1000.11 1000.55 1001.07 1001.59 1001.91 1002.79 1003.99 1004.83 1005.55 1006.59 1006.83 1007.47 1007.83 1008.23 1008.55 1008.59 1008.71 1008.91 1009.07 1009.23 1009.27 1009.31 1009.31 1009.19 1009.11 1009.11 1009.27 1009.03 1008.79 1008.83 1008.91 1008.87 1008.55 1008.27 1007.95 1007.51 1006.99 1006.59 1006.27 1006.03 1005.67 1005.15 1004.79 1004.31 1003.71 1003.27 1002.87 1002.35 1001.83
996.47 996.23 996.03 995.87 995.95 996.23 996.91 997.43 997.79 998.03 998.31 998.59 998.95 999.31 999.75 1000.35 1001.07 1001.51 1001.99 1003.23 1004.27 1004.75 1005.39 1006.15 1006.55 1007.11 1007.67 1007.99 1008.23 1008.31 1008.55 1008.63 1008.95 1009.03 1009.07 1009.11 1009.23 1009.11 1009.03 1009.03 1009.11 1009.07 1008.99 1008.91 1008.99 1008.99 1008.67 1008.39 1008.15 1007.75 1007.39 1007.03 1006.59 1006.23 1005.79 1005.63 1005.27 1004.83 1004.39 1004.03 1003.47 1002.91 1002.31
996.51 996.47 996.27 995.91 995.87 996.15 996.51 997.07 997.43 997.75 997.99 998.27 998.55 998.99 999.39 1000.23 1000.91 1001.39 1002.39 1003.51 1004.43 1004.83 1005.43 1005.83 1006.39 1006.87 1007.47 1007.91 1008.15 1008.19 1008.43 1008.63 1008.75 1008.87 1009.03 1009.43 1009.39 1009.07 1008.99 1009.03 1009.11 1009.11 1008.99 1008.99 1009.07 1009.07 1008.91 1008.63 1008.31 1008.03 1007.71 1007.35 1006.87 1006.75 1006.63 1006.39 1006.03 1005.59 1004.95 1004.59 1004.19 1003.71 1003.23
Wind_Speed
10 10 9 9 9 9 9 9 8 8 7 7 7 7 8 7 8 8 7 7 8 8 7 7 7 7 7 6 7 7 8 9 9 9 9 9 9 8 9 9 8 12 16 14 9 12 12 13 13 14 12 15 14 14 14 17 15 15 13 13 12 12 20
9 8 9 9 9 8 8 8 8 8 7 8 8 9 6 8 9 9 8 7 9 8 7 7 8 8 7 6 7 7 7 8 7 8 9 9 9 10 7 8 10 12 12 17 10 11 11 12 12 15 11 14 15 17 16 19 15 15 12 12 11 12 11
9 9 10 10 9 9 9 9 9 8 8 8 9 9 9 8 9 10 10 9 9 8 7 8 8 8 6 5 6 7 7 6 8 8 10 10 9 10 9 9 9 9 12 14 15 10 14 11 11 12 15 13 16 16 18 17 16 12 13 10 11 12 10
9 9 9 12 13 11 10 9 8 8 8 9 9 9 10 9 10 10 9 9 9 8 8 8 7 7 7 6 7 7 7 7 7 9 10 10 8 8 10 10 8 8 9 10 15 14 11 12 14 13 16 15 14 17 15 13 12 13 12 12 12 12 12
6 8 9 13 15 11 10 8 9 10 8 9 8 9 9 10 9 10 10 10 9 9 9 8 9 8 6 6 7 6 7 7 9 10 9 9 9 9 8 7 7 8 9 10 15 17 13 13 14 14 15 15 16 13 14 12 14 12 12 13 11 11 12
8 9 12 13 13 14 11 9 9 10 12 11 10 9 9 9 9 9 10 9 9 9 9 9 9 7 6 6 7 8 8 8 10 11 11 12 10 7 6 8 9 9 9 11 15 16 16 13 15 14 14 14 13 15 15 15 14 11 12 10 11 10 10
12 10 11 11 12 14 11 9 9 9 10 11 11 10 10 9 10 10 9 8 8 8 8 8 7 6 6 7 7 8 9 10 12 12 11 8 7 8 8 8 8 7 9 10 14 15 14 15 14 14 16 14 14 15 14 15 15 14 7 10 10 15 12
12 11 10 9 11 12 9 9 9 10 12 10 11 11 10 10 7 7 9 8 8 7 7 7 7 7 7 7 7 8 10 11 11 9 9 8 8 8 8 7 8 7 9 11 13 13 14 13 15 14 14 15 15 13 12 11 12 16 15 14 12 12 14
11 10 10 9 9 11 12 11 11 10 10 10 11 9 10 11 11 11 9 9 7 7 7 7 7 7 6 7 13 18 17 16 16 11 10 9 8 7 7 8 8 8 9 12 13 14 13 14 14 15 15 16 13 12 13 13 13 15 14 16 15 12 11
10 11 11 10 10 11 10 11 9 13 19 15 9 10 9 5 9 10 8 8 8 8 8 7 7 7 13 16 18 19 21 21 21 21 12 7 7 7 8 8 8 8 8 11 13 13 14 14 12 13 16 16 15 13 14 14 13 14 16 11 14 13 10
10 10 9 12 12 12 11 10 9 18 20 21 22 13 10 7 8 9 10 9 6 9 8 7 7 6 10 14 15 14 19 19 20 19 21 22 21 15 10 7 9 9 9 11 13 13 9 7 11 16 16 15 14 13 14 14 15 12 14 13 12 15 10
11 11 11 11 11 11 11 10 13 19 21 21 22 19 9 9 7 7 6 8 9 9 7 7 6 6 7 8 10 8 6 10 16 21 21 20 19 19 20 19 14 11 10 11 11 7 8 8 10 13 12 12 12 14 15 14 13 16 13 13 13 12 14
11 11 11 11 12 12 11 10 16 21 23 22 23 23 17 9 8 9 8 10 9 8 7 6 6 7 7 6 11 11 7 5 6 10 16 19 20 19 19 19 21 20 15 11 8 8 12 12 12 12 13 11 14 14 16 15 15 12 11 11 13 15 14
12 11 11 12 12 11 11 10 14 22 23 23 23 23 20 9 10 10 10 10 9 8 8 7 7 7 6 5 5 5 6 5 5 7 7 7 7 8 11 16 19 20 18 15 12 10 13 14 12 13 14 13 13 16 16 12 11 8 10 11 13 14 16
11 11 11 11 11 10 11 10 19 22 23 23 23 23 20 8 9 7 9 10 9 9 8 7 7 6 7 5 4 4 6 5 7 7 6 7 8 9 9 10 9 6 6 9 10 11 14 14 12 10 11 12 12 13 12 7 9 10 12 13 13 14 13
8 10 11 11 11 11 11 11 22 23 23 23 23 23 13 9 9 9 7 9 9 9 8 7 6 6 6 4 4 6 12 14 7 6 8 8 10 10 10 9 8 13 17 14 12 10 11 11 15 21 18 17 15 13 10 11 11 8 9 11 12 13 9
10 10 10 11 11 12 10 10 17 23 23 23 24 18 10 9 7 8 8 8 9 8 7 7 5 5 5 4 4 7 13 14 13 8 7 8 9 12 10 7 6 14 18 16 17 20 23 24 23 22 22 22 23 17 15 11 8 5 6 8 12 13 11
9 9 10 11 11 11 11 11 15 23 22 23 23 19 10 8 8 8 8 7 6 5 6 7 13 11 6 6 4 7 15 15 11 7 4 9 12 9 9 10 8 4 5 12 16 17 18 19 18 19 20 20 20 19 15 9 8 8 7 8 8 11 10
8 8 9 9 11 16 15 10 12 21 22 24 22 18 10 8 7 8 7 6 5 4 4 5 7 14 12 7 7 14 13 13 10 5 9 5 2 7 8 10 5 5 8 7 6 6 7 10 12 11 10 11 19 18 15 10 11 8 6 8 8 9 10
8 9 9 9 10 10 12 10 9 14 23 23 23 23 12 7 8 8 8 6 6 5 4 4 4 6 11 13 13 13 13 12 11 9 1 1 2 5 11 4 3 6 7 8 7 9 7 9 8 9 8 8 9 10 10 11 10 9 7 8 8 8 8
8 8 9 8 10 11 11 10 10 12 23 23 24 23 20 7 9 8 7 7 6 6 6 5 5 3 5 10 12 12 13 12 11 10 2 2 3 7 8 6 5 7 11 6 7 8 8 8 8 8 7 7 8 8 8 8 9 9 8 8 8 8 8
7 7 7 7 8 9 10 10 13 9 18 23 23 23 24 10 9 9 8 7 6 6 5 5 5 4 5 8 11 12 12 11 8 8 3 5 10 10 11 6 3 5 5 6 6 7 8 8 8 8 8 7 7 8 9 9 9 8 8 8 9 9 10
7 7 7 7 7 7 8 8 10 16 12 19 22 23 22 18 10 16 9 9 8 8 6 4 4 4 6 8 11 11 9 5 5 4 4 8 8 8 9 7 5 5 5 5 6 6 8 8 8 8 8 8 8 9 10 10 9 10 9 8 9 11 11
6 6 7 8 7 6 6 7 7 13 19 15 22 21 21 20 16 17 9 8 7 6 6 5 5 4 6 9 9 7 3 2 3 2 4 5 6 8 7 3 5 4 4 5 6 6 7 8 8 7 8 8 9 10 11 11 10 10 10 9 8 9 11
6 7 7 7 7 6 6 6 7 7 14 20 19 21 20 19 18 18 17 9 5 7 6 8 10 7 6 5 4 2 6 5 4 4 4 5 7 7 2 4 3 5 4 6 6 6 7 8 8 8 8 9 9 11 10 9 9 9 8 8 7 7 8
6 7 7 7 6 6 6 7 7 7 8 12 15 16 19 18 18 17 17 13 9 11 13 12 9 6 4 3 5 5 4 2 1 4 6 7 7 3 4 3 4 3 5 6 6 7 8 8 9 9 9 9 8 8 8 9 9 10 9 8 7 6 2
6 7 7 7 6 6 6 6 7 7 7 7 7 7 9 11 10 15 15 8 7 9 7 8 8 5 6 6 7 8 6 5 6 5 4 4 3 3 3 3 3 4 4 5 5 7 7 8 8 8 7 8 8 8 8 9 8 9 9 8 7 5 5
7 8 8 7 7 7 6 6 6 7 8 8 8 7 7 6 5 5 6 8 7 8 7 7 7 7 6 6 6 5 4 4 2 2 3 3 3 3 4 4 7 6 4 3 4 6 7 7 7 7 8 8 7 8 8 9 8 9 9 8 7 6 7
8 8 7 7 8 8 7 6 7 10 12 12 13 10 9 8 7 6 7 12 15 8 7 7 7 6 5 4 4 2 2 2 3 3 3 3 2 5 4 5 4 6 5 5 5 6 7 7 7 7 7 7 7 8 9 9 8 8 9 8 6 5 6
8 8 7 8 7 8 9 10 10 12 19 18 20 20 17 13 12 11 11 16 19 10 7 6 7 6 6 5 6 3 2 2 2 1 3 2 4 4 5 4 4 3 5 5 5 5 6 7 7 7 7 7 7 8 8 9 11 8 9 7 8 7 7
18 15 13 10 7 8 15 12 11 15 18 20 21 21 21 19 18 17 18 20 12 6 6 6 7 6 5 4 4 5 4 2 1 1 0 2 1 3 3 5 3 5 5 6 5 5 6 6 6 7 7 7 7 7 8 7 7 7 8 8 8 7 8
16 16 16 16 13 8 6 13 15 16 19 20 21 21 21 20 20 20 21 21 16 7 6 6 7 6 6 6 5 4 4 3 3 1 0 0 3 4 4 3 5 4 4 5 5 6 7 6 6 6 6 6 6 8 6 7 8 9 8 8 7 6 7
14 15 16 16 17 17 13 12 14 17 18 20 21 21 21 21 21 21 22 20 10 7 7 6 6 7 6 6 6 6 6 4 3 2 1 0 1 2 2 4 3 3 4 5 5 6 6 6 6 6 7 7 7 8 8 8 8 8 7 7 8 7 8
10 11 13 15 16 18 17 16 16 17 18 19 20 21 21 20 16 20 23 16 9 8 8 7 6 6 6 6 5 6 6 4 2 1 1 0 0 0 1 2 3 4 6 4 6 5 5 5 6 7 6 7 7 6 5 7 8 8 10 10 9 8 8
3 5 8 8 10 15 19 18 16 17 17 19 20 20 21 21 12 13 11 8 6 6 7 8 8 7 7 7 7 7 7 6 4 2 1 1 0 1 2 3 4 4 3 5 5 5 6 6 6 6 7 6 7 8 9 9 9 9 9 9 10 9 8
2 3 4 7 11 11 17 19 18 16 19 18 21 20 23 13 10 9 8 8 7 7 6 7 7 7 7 6 5 7 6 6 6 4 4 1 1 1 2 2 4 5 5 4 5 5 6 6 6 6 6 6 5 7 7 7 8 8 8 8 8 8 8
Wind_Direction
166 165 166 167 179 180 182 183 179 182 181 192 198 204 203 199 203 204 207 206 218 220 222 220 224 225 226 223 232 236 250 259 263 266 270 270 268 267 268 267 269 277 284 286 279 288 296 303 305 299 296 296 298 298 300 296 292 288 288 284 284 283 285
156 165 165 170 179 176 181 182 178 182 179 195 202 206 194 204 204 207 209 206 217 220 220 224 228 225 220 221 235 239 242 253 260 265 267 262 263 269 260 252 265 273 278 289 299 289 290 292 300 289 293 295 303 300 301 301 294 296 284 284 286 282 281
159 164 170 184 177 179 185 184 183 182 184 195 202 203 203 201 204 209 207 208 216 216 216 222 223 223 214 215 231 238 246 247 252 255 257 257 255 255 257 261 254 270 278 283 289 293 296 293 295 289 297 296 293 296 297 296 299 299 299 287 286 287 285
162 157 168 187 192 190 185 179 182 183 186 194 199 204 207 202 207 210 210 210 212 214 216 219 223 224 217 216 227 234 239 243 251 255 257 257 255 258 260 262 258 253 265 281 290 291 288 295 296 292 295 291 295 293 297 297 299 297 297 294 291 291 288
156 167 178 198 202 190 187 179 181 187 184 193 195 203 206 211 210 212 211 211 211 214 215 220 225 228 217 210 223 239 242 247 256 258 257 258 255 257 258 253 252 257 258 268 282 287 286 289 287 289 291 295 298 300 299 300 296 300 295 293 290 285 289
181 185 196 204 204 204 199 183 189 195 200 199 200 206 213 217 217 217 216 213 212 215 217 220 223 219 206 211 222 241 249 254 258 259 255 251 256 254 250 251 256 253 252 260 276 283 291 287 290 293 291 297 299 304 305 299 297 292 290 293 296 295 298
195 200 203 205 203 206 199 184 179 190 199 202 199 204 209 215 218 221 219 218 215 215 220 221 218 215 208 216 223 238 250 258 259 257 254 251 247 246 246 250 255 253 262 264 280 283 278 287 286 288 295 299 304 299 292 298 304 296 297 297 308 306 299
199 201 200 200 202 202 190 189 194 198 206 207 206 200 203 211 206 215 222 222 220 219 222 221 220 215 213 214 228 241 252 252 258 256 253 247 242 241 245 251 267 272 269 276 281 280 288 286 289 292 290 297 301 295 293 293 299 301 303 303 304 298 302
198 200 201 191 194 203 205 201 203 203 203 205 207 206 210 210 213 218 221 224 219 220 218 221 220 218 219 223 240 250 250 248 245 237 244 251 238 236 238 252 265 267 266 282 282 283 285 286 288 290 296 301 296 295 297 300 300 291 293 300 299 296 287
199 201 198 192 198 203 201 204 203 204 205 204 198 204 209 188 210 217 216 217 224 224 218 220 222 229 235 247 257 257 260 264 268 269 266 239 200 225 238 248 259 261 263 278 282 282 285 286 284 291 298 295 290 294 295 293 293 292 293 294 289 284 283
197 199 197 200 203 204 205 206 207 206 210 213 210 202 207 193 204 209 219 220 194 225 225 224 226 233 245 253 257 261 269 273 274 279 280 281 281 274 264 260 265 266 270 274 280 280 277 282 290 294 293 288 294 290 293 290 291 283 291 287 291 295 294
204 205 204 207 207 208 207 208 207 209 212 216 218 215 200 205 202 195 197 211 222 228 229 230 231 235 236 243 244 242 255 271 280 279 280 280 279 278 277 275 278 286 283 280 276 280 286 289 288 292 287 288 290 292 290 286 285 282 276 273 273 271 278
204 207 204 207 211 212 209 209 207 214 217 220 221 222 217 203 205 211 198 213 218 223 226 229 236 238 231 217 236 260 274 256 260 270 277 279 280 282 281 283 284 280 277 279 277 297 294 285 289 283 277 270 276 283 288 293 286 270 257 261 265 273 281
208 207 204 206 210 211 211 210 207 216 218 220 221 222 224 193 203 209 212 211 213 216 221 227 233 240 250 231 232 236 246 261 258 265 276 276 273 265 269 275 280 283 283 289 295 284 274 275 267 268 271 273 281 293 288 281 275 288 292 291 285 294 288
209 209 208 208 208 210 210 208 209 216 217 219 220 222 225 203 199 194 204 209 210 211 216 220 229 242 251 235 224 224 229 233 248 251 252 260 265 258 256 260 259 264 281 279 263 260 258 264 265 263 281 290 290 282 277 284 301 299 291 290 291 282 280
205 209 209 210 206 208 212 212 216 217 218 219 221 223 223 217 196 199 194 202 205 210 211 214 225 240 239 241 237 242 263 275 265 227 247 255 256 268 274 263 271 290 295 289 279 277 285 297 299 299 297 298 299 300 304 302 296 295 303 304 298 292 294
204 207 210 207 208 208 212 212 215 217 217 218 221 223 220 214 205 192 196 201 202 203 204 211 220 226 239 234 237 249 275 279 277 270 255 264 281 274 273 285 300 298 293 292 295 296 301 304 305 305 304 306 308 305 303 303 297 292 322 304 298 292 294
202 204 206 208 203 202 208 211 210 215 216 218 220 220 217 210 206 208 204 200 197 188 201 212 230 239 220 231 225 261 279 279 278 275 282 275 269 279 301 296 298 297 289 295 297 304 310 312 313 314 316 314 309 305 307 308 289 310 305 285 281 289 291
199 202 204 206 208 210 212 212 208 212 215 218 219 220 214 206 197 205 203 187 190 188 196 209 229 247 249 242 256 275 276 281 287 276 265 259 318 300 300 294 313 323 308 307 317 310 313 313 314 312 301 297 305 308 310 301 289 289 270 272 279 281 294
198 202 207 204 206 210 215 207 203 209 217 219 220 219 213 191 194 203 201 184 185 189 212 205 216 228 244 260 275 280 281 282 279 276 108 62 293 301 288 309 352 311 314 316 318 304 304 300 297 294 295 288 292 290 288 293 291 283 266 260 265 263 261
200 204 209 202 201 210 211 209 206 207 218 220 221 219 218 184 194 197 187 182 178 196 201 210 208 193 229 259 273 275 277 276 280 291 336 334 281 256 279 346 356 327 335 321 312 314 316 315 308 303 295 294 292 293 290 288 279 271 259 253 254 254 249
198 202 208 207 205 205 209 207 206 203 216 219 220 219 218 201 186 183 173 169 192 188 203 204 186 195 220 253 270 270 269 279 295 304 330 278 283 317 335 355 358 327 319 316 320 317 322 316 315 309 309 302 300 297 304 295 288 279 265 242 238 239 242
198 199 204 208 209 204 204 201 205 207 204 218 220 218 218 209 170 192 172 178 187 195 202 168 166 177 216 261 264 261 274 298 314 324 294 298 325 335 339 4 338 324 322 323 326 331 321 316 309 314 314 314 312 313 307 302 293 291 283 259 240 235 231
196 197 205 208 210 204 197 196 194 211 212 209 218 219 216 217 188 187 167 178 181 178 170 155 163 177 225 251 256 270 291 322 313 311 314 346 345 9 2 349 339 327 331 330 339 335 321 310 308 304 311 313 317 312 308 301 297 297 290 278 253 239 234
191 199 206 208 209 201 191 190 192 190 212 211 213 217 216 216 212 191 176 167 169 149 158 167 171 201 235 239 258 111 78 44 17 15 13 17 23 18 348 347 328 332 343 357 346 325 305 307 305 308 296 303 304 303 301 307 312 309 304 294 278 240 226
194 202 205 211 206 198 190 187 180 188 193 211 209 214 216 213 216 196 181 166 161 166 164 174 182 182 161 110 105 76 76 56 26 55 45 30 28 12 352 324 318 338 9 348 336 316 315 306 309 308 309 304 308 311 320 325 323 329 330 334 334 321 286
199 204 206 207 202 193 187 181 182 180 183 195 199 199 208 212 214 210 200 154 152 160 151 139 124 135 149 154 128 108 95 81 52 37 20 355 352 359 331 302 317 8 355 345 322 316 304 308 303 300 312 330 333 330 328 328 324 334 333 336 338 329 332
207 207 201 204 197 192 184 184 180 177 177 188 191 187 184 198 181 175 120 125 120 112 119 109 107 91 65 70 60 58 42 39 38 41 12 348 332 346 334 352 6 16 16 342 308 291 296 301 314 324 328 328 334 331 332 330 333 343 334 336 343 358 2
213 207 201 199 194 185 190 184 189 195 188 187 188 183 177 180 175 141 126 143 133 105 89 100 102 106 93 89 107 82 60 32 26 21 359 337 322 8 340 10 12 12 345 334 331 327 322 320 321 323 326 331 336 341 337 332 333 340 341 324 343 359 346
212 201 192 198 200 186 189 192 202 191 191 193 196 196 189 182 172 150 140 149 146 132 120 125 138 147 145 138 132 129 121 85 54 20 3 325 1 10 356 10 355 354 350 343 340 322 324 325 325 330 339 342 344 333 341 341 350 333 340 331 339 347 352
233 222 204 191 189 194 205 199 188 190 193 195 196 198 195 189 184 166 158 153 135 114 132 138 148 155 148 150 146 145 155 141 115 65 275 337 323 6 7 358 348 353 351 356 339 337 325 321 328 336 337 350 344 341 337 333 338 334 346 354 340 351 349
239 239 231 211 194 175 198 208 199 190 193 195 195 197 194 187 182 176 172 163 145 123 151 152 151 154 164 160 153 173 144 132 140 166 167 339 24 13 8 6 347 347 4 359 346 342 335 336 340 341 343 344 344 344 340 346 348 356 351 351 343 352 354
257 243 238 231 209 188 180 190 198 195 193 195 194 193 192 187 184 178 177 158 146 146 156 159 158 157 163 165 165 169 144 158 152 164 179 203 79 29 346 345 312 341 18 16 351 348 329 335 335 341 346 349 351 356 359 353 357 350 351 349 351 341 355
278 277 252 234 221 196 186 193 196 196 193 194 192 190 189 183 181 177 179 161 152 154 162 161 156 163 162 168 163 155 136 140 159 159 176 351 330 322 328 321 335 17 18 12 358 341 328 337 340 346 358 0 359 357 350 0 0 355 3 3 358 346 338
289 287 286 239 219 206 184 183 189 196 193 192 189 186 183 172 169 172 174 139 133 153 155 160 166 167 167 161 164 159 152 156 158 149 126 179 2 1 36 26 21 23 18 18 357 353 344 348 346 350 0 1 4 4 11 4 360 359 2 0 356 355 345
250 276 326 267 201 203 184 176 182 192 192 191 186 182 175 165 164 167 155 151 153 159 161 154 159 155 162 156 161 140 151 152 157 162 161 193 207 106 86 62 40 23 24 13 8 354 344 346 350 356 357 353 11 23 12 2 358 353 354 0 1 355 357